This is the latest recevied weather packets stored in our database for station/object NE8U. If no packets are shown the sender has not sent any weather packets the latest 10 day(s).
| Time | Temp. | Humidity | Pressure | Rain* | Wind** | Luminosity | Snow |
|---|---|---|---|---|---|---|---|
| 1777534869 | 20° C | 25% | 1015.1 hPa | 0 mm | - | 0 W/m² | - |
| 1777534566 | 20° C | 25% | 1015 hPa | 0 mm | - | 0 W/m² | - |
| 1777534264 | 20° C | 25% | 1015.1 hPa | 0 mm | - | 0 W/m² | - |
| 1777533962 | 20° C | 25% | 1015.3 hPa | 0 mm | - | 0 W/m² | - |
| 1777533659 | 20° C | 24% | 1014.9 hPa | 0 mm | - | 0 W/m² | - |
| 1777533355 | 20° C | 24% | 1014.9 hPa | 0 mm | - | 0 W/m² | - |
| 1777533051 | 20.56° C | 24% | 1015.1 hPa | 0 mm | - | 0 W/m² | - |
| 1777532749 | 20.56° C | 24% | 1015.1 hPa | 0 mm | - | 0 W/m² | - |
| 1777532445 | 20.56° C | 23% | 1015.1 hPa | 0 mm | - | 0 W/m² | - |
| 1777532142 | 20.56° C | 22% | 1015.2 hPa | 0 mm | - | 0 W/m² | - |
| 1777531838 | 21.11° C | 21% | 1015.2 hPa | 0 mm | - | 0 W/m² | - |
| 1777531533 | 20.56° C | 22% | 1015.2 hPa | 0 mm | - | 0 W/m² | - |
| 1777531232 | 21.11° C | 21% | 1015.2 hPa | 0 mm | - | 0 W/m² | - |
| 1777530929 | 20.56° C | 20% | 1015.2 hPa | 0 mm | - | 0 W/m² | - |
| 1777530626 | 20.56° C | 20% | 1015 hPa | 0 mm | - | 0 W/m² | - |
| 1777530323 | 20.56° C | 19% | 1015.1 hPa | 0 mm | - | 0 W/m² | - |
| 1777530019 | 20° C | 19% | 1015.1 hPa | 0 mm | - | 0 W/m² | - |
| 1777529717 | 20.56° C | 19% | 1015.2 hPa | 0 mm | - | 0 W/m² | - |
| 1777529413 | 20.56° C | 19% | 1015.1 hPa | 0 mm | - | 0 W/m² | - |
| 1777529110 | 20.56° C | 19% | 1015.3 hPa | 0 mm | - | 0 W/m² | - |
| 1777528805 | 21.11° C | 20% | 1015.3 hPa | 0 mm | - | 0 W/m² | - |
| 1777528503 | 21.67° C | 20% | 1015.4 hPa | 0 mm | - | 0 W/m² | - |
| 1777528201 | 21.67° C | 19% | 1015.6 hPa | 0 mm | - | 0 W/m² | - |
| 1777527897 | 21.67° C | 18% | 1015.6 hPa | 0 mm | - | 0 W/m² | - |
| 1777527594 | 21.67° C | 17% | 1015.7 hPa | 0 mm | - | 0 W/m² | - |
* Rain latest hour (hover to see other rain measurements)
** Current wind speed in m/s (hover to see current wind gust speed)